Current weather by "City, St" or "zip code"  
 

Current Conditions: Wendover / Air Force Auxillary Field, UT

Mostly Cloudy


65.0 F

Last Updated on Oct 24 2020, 6:56 pm MDT
Humidity: 22%
Wind Speed: NW 12.7 mph
Barometer 29.77 in
Dewpoint: 25.0 F
Visibility: 10.00 mi
Precip: --
Heat Index: NA
Wind Chill: NA
Current conditions at:

Wendover / Air Force Auxillary Field, UT (KENV)

Lat: 40.72056 Lon: 114.03583

Local Radar Image active severe weather and emergency alerts image image weather storm and storm spotter reports image weather observation monitoring service image
Local
Radar
Active
Alerts
Storm Reports Obs
Monitoring

Sign-up For Email & Text Message Weather Alert Notification Services



Advertise Here

Observation History for Wendover / Air Force Auxillary Field, UT


Time Wind
(mph)
Vis
(mi)
Weather Precip (in) Temperature (F) Relative
Humidity
Wind
Chill
(F)
Heat
Index
(F)
Pressure
Air Dwpt altimeter
(in)
sea level
(mb)
Rmks
6:56 pm MDT NW 12.7 10.00 Mostly Cloudy -- 65.0 25.0 22% NA NA 29.77 1007.5
5:56 pm MDT E 5.8 10.00 Mostly Cloudy -- 62.0 16.0 17% 62 NA 29.77 1008.1
4:56 pm MDT NE 10.4 10.00 Partly Cloudy -- 64.0 16.0 15% NA NA 29.77 1008.1
3:56 pm MDT NE 5.8 10.00 Fair -- 61.0 15.1 17% 61 NA 29.79 1008.9
2:56 pm MDT SE 8.1 10.00 Fair -- 59.0 14.0 17% 58 NA 29.82 1010.2
1:56 pm MDT NE 6.9 10.00 Fair -- 56.0 12.9 18% 54 NA 29.86 1011.5
12:56 pm MDT SE 4.6 10.00 Fair -- 54.0 12.9 19% 53 NA 29.89 1012.6
11:56 am MDT SE 3.5 10.00 Fair -- 50.0 10.9 21% NA NA 29.93 1014.3
10:56 am MDT N 0.0 10.00 Fair -- 45.0 12.0 26% NA NA 29.95 1015.2
9:56 am MDT N 0.0 10.00 Fair -- 39.0 14.0 36% NA NA 29.96 1015.9
8:56 am MDT N 0.0 10.00 Fair -- 33.0 12.9 43% NA NA 29.96 1016.4
7:56 am MDT N 0.0 10.00 Fair -- 33.0 12.0 42% NA NA 29.97 1016.1
6:56 am MDT N 0.0 10.00 Fair -- 31.0 15.1 52% NA NA 29.97 1016.1
5:56 am MDT N 0.0 10.00 Fair -- 30.0 10.9 45% NA NA 29.97 1016.1
4:56 am MDT N 0.0 10.00 Fair -- 27.0 10.0 49% NA NA 29.99 1016.9
3:56 am MDT NE 3.5 10.00 Fair -- 30.0 12.0 47% NA NA 30.00 1017.4
2:56 am MDT E 4.6 10.00 Fair -- 28.0 10.9 49% 23 NA 30.01 1017.6
1:56 am MDT N 0.0 10.00 Fair -- 29.0 10.0 45% NA NA 30.01 1018.0
12:56 am MDT N 0.0 10.00 Fair -- 32.0 10.0 40% NA NA 30.03 1018.5
11:56 pm MDT N 0.0 10.00 Fair -- 31.0 10.0 42% NA NA 30.04 1019.0
10:56 pm MDT N 0.0 10.00 Fair -- 35.0 8.1 32% NA NA 30.05 1019.2
9:56 pm MDT N 0.0 10.00 Fair -- 39.0 9.0 29% NA NA 30.05 1019.2
8:56 pm MDT W 4.6 10.00 Fair -- 35.0 8.1 32% 31 NA 30.07 1020.8
7:56 pm MDT N 0.0 10.00 Fair -- 43.0 9.0 25% NA NA 30.08 1020.4

Regional Weather Observation


Elko, Elko Regional Airport, NV (KEKO)

Fair
58.0 F

Michael Army Airfield - Dugway Proving Ground, UT (KDPG)

Mostly Cloudy
37.0 F

Joslin Field - Magic Valley Regional Airport, ID (KTWF)

Overcast
42.0 F

Ogden-Hinckley Airport, UT (KOGD)

Overcast
50.0 F

Ely, Ely Airport, NV (KELY)

Fair
61.0 F

Burley Municipal Airport, ID (KBYI)

Overcast
44.0 F